Location: Cheching
(60.0667°N, 164.2167°W)
Time: 14:25:21
(UTC+00:00)

O/OREOS (USA 219) - Pass Details

Date: 18 January 2021
Orbit: 621 x 646 km, 72.0° (Epoch: 22 May)

Event Time Altitude Azimuth Distance (km) Brightness Sun altitude
Rises 18:08:14 0° 176° (S) 2,952 ? -10.3°
Reaches altitude 10° 18:10:47 10° 165° (SSE) 2,047 ? -10.0°
Maximum altitude 18:14:36 27° 108° (ESE) 1,261 ? -9.6°
Drops below altitude 10° 18:18:27 10° 52° (NE) 2,056 ? -9.2°
Sets 18:21:00 0° 40° (NE) 2,968 ? -8.9°
